DIAMANT DEB, 2685

Orbit data source: Space-Track

DIAMANT DEB, 2685 is space debris in LEO originally from a launch on Wed, 15 Feb 1967 UTC launched from the Hamma Guira Space Track Range (HGSTR). Debris objects in space refer to the collection of defunct objects orbiting the Earth. Examples of debris include non-operational satellites, rocket bodies, and fragments generated from explosions, collisions, or faulty payload assembly.

Loading next visibility...
Identifier
2685, 1967-014F
Orbit
LEO
Last TLE update
1 day ago
Origin
Manufacturer
Unknown
Mission
Spacecraft
Bus & Motor
Unknown
Mass
Unknown
Launch date (UTC)
1967-02-15 (58 years ago)
Launch vehicle
Unknown
Launch site
Hamma Guira Space Track Range (HGSTR)
Object type
Payload
Rocket body
Debris
Shape & HBR
Unknown
Radar Cross Section
Small (<0.1 m²)

Expand to show TLE details & history

TLE from 1 day ago
0 DIAMANT DEB
1 02685U 67014F   25127.87218018  .00003383  00000-0  60837-3 0  9995
2 02685  38.9332  57.8300 0364404 197.0912 161.7285 14.32103087909269
Epoch: 2025-05-07T20:55Z
Definitive object data (Epoch: 2025-05-07T20:55:56.367Z)
Latitude
-0.00006°
Longitude
-122.10574°
Altitude
1,032.762 km
Speed
7.209 km/s
True Right ascension
03h 51m 19s
True Declination
0° 00' 00"
Sunlit
Object was in daylight at TLE epoch
Visualization TLE readout
Latitude
37.39053°
Longitude
-58.80385°
Altitude
954.463 km
Speed
7.293 km/s
Apparent Right ascension
05h 04m 15s
Apparent Declination
3° 03' 22"
Sunlit
Object is in daylight
Visualization observer readout
Local Sidereal Time
13:14:29
Azimuth
294.623° NW
Elevation
-22.209°
Doppler factor
1
Orbital elements
Apogee altitude
1,048.335 km
Perigee altitude
526.117 km
Semi-major axis
7,165.363 km
Eccentricity
0.0364404
Inclination
38.9332°
RAAN
57.83°
Arg. of periapsis
197.0912°
True anomaly
162.98322°
Mean anomaly
161.7285°
Eccentric anomaly
162.36116°
Mean motion
3.57838 °/min
BSTAR
0.00060837
Orbital period
100.6 mins
Loading maneuver chart data...
Loading SW <> Apogee altitude chart data...
Loading historical data...
Loading historical data...
Loading historical data...
Loading historical data...
Loading historical data...
Loading historical data...
Loading historical data...

DIAMANT DEB Visibility forecast

Observer location: undefined°, undefined°

Span
Click to sort rows by Start time (UTC) header in descending order
Start Az.
Max El. time (UTC)
Max El. Az.
Max El.
End time (UTC)
End Az.
10 mins2025-05-09 21:39:53.103Z202.785° SW2025-05-09 21:43:53.103Z154.605° SSE29.383°2025-05-09 21:49:53.103Z88.814° E
11 mins2025-05-09 23:24:53.103Z245.939° WSW2025-05-09 23:29:53.103Z186.955° SSW42.838°2025-05-09 23:35:53.103Z85.28° E
10 mins2025-05-10 01:11:53.103Z269.156° W2025-05-10 01:16:53.103Z144.587° SSE44.475°2025-05-10 01:21:53.103Z97.906° ESE
8 mins2025-05-10 02:58:53.103Z268.671° W2025-05-10 03:02:53.103Z196.713° SSW37.249°2025-05-10 03:06:53.103Z131.783° SE
4 mins2025-05-10 04:45:53.103Z245.018° WSW2025-05-10 04:47:53.103Z220.653° SW14.973°2025-05-10 04:49:53.103Z194.383° SSW
|